[[{"header":{"parameterUnit":"m.s-1","parameterCategory":1,"la1":30.2991,"la2":30.254,"lo1":-89.0895,"lo2":-89.0444,"dy":0.0017,"dx":0.0017,"nx":28,"ny":28,"refTime":"2025-08-08T03:00:00:Z","depth":0,"parameterNumber":2,"parameterNumberName":"U-component_of_WINDS"},"data":[0,0,0,0,0,0,0,0,0,0,0,0,0,0,0,0,0,0,0,0,0,0,0,0,0,0,0,0,0,0,0,0,0,0,0,0,0,0,0,0,0,0,0,0,0,0,0,0,0,0,0,0,0,0,0,0,0,0,-2.8118,-2.8118,0,-2.8064,-2.8063,-2.8063,-2.7954,-2.7952,-2.795,-2.7948,-2.7893,-2.7894,-2.7894,0,0,0,0,0,0,0,0,0,0,0,0,0,-2.8131,-2.8131,-2.8118,-2.8118,-2.8117,-2.8064,-2.8063,-2.8063,-2.7955,-2.7952,-2.795,-2.7947,-2.7893,-2.7894,-2.7894,0,0,0,0,0,0,0,0,0,0,0,0,0,-2.8106,-2.8132,-2.8118,-2.8057,-2.8051,-2.8064,-2.8063,-2.8062,-2.7955,-2.7952,-2.7949,-2.7946,-2.7893,-2.7894,-2.7894,-2.7964,0,0,-2.7897,-2.7897,0,0,0,0,0,0,0,0,-2.8108,-2.8106,-2.8067,-2.8061,-2.8054,-2.8013,-2.8048,-2.8029,-2.7956,-2.7992,-2.7948,-2.7944,-2.7936,-2.7933,-2.793,-2.7961,-2.7959,-2.7897,-2.7897,-2.7898,-2.7898,0,0,0,0,0,0,0,-2.811,-2.8108,-2.8097,-2.8066,-2.8059,-2.8033,-2.8026,-2.8044,-2.7982,-2.7988,-2.798,-2.7975,-2.7932,-2.7929,-2.7928,-2.7958,-2.7897,-2.7898,-2.7898,-2.7898,-2.8047,-2.805,0,0,0,0,0,0,-2.812,-2.811,-2.8098,-2.8095,-2.8074,-2.8035,-2.8027,-2.8029,-2.7982,-2.7971,-2.7978,-2.797,-2.7929,-2.7927,-2.7925,-2.8005,-2.7898,-2.7899,-2.7899,-2.8043,-2.8048,-2.8051,0,0,0,0,0,0,-2.8121,-2.812,-2.8101,-2.81,-2.8096,-2.8038,-2.8042,-2.803,-2.8027,-2.7974,-2.7963,-2.7987,-2.7927,-2.7924,-2.7956,-2.8001,-2.7899,-2.79,-2.8039,-2.8045,-2.8049,-2.8164,0,0,0,0,0,0,-2.8122,-2.8121,-2.8146,-2.8102,-2.8096,-2.8132,-2.8044,-2.8031,-2.8029,-2.8018,-2.7979,-2.797,-2.7924,-2.7955,-2.7956,-2.8001,-2.79,-2.8035,-2.8042,-2.8048,-2.8156,-2.8173,-2.8187,0,0,0,0,0,-2.8122,-2.818,-2.8148,-2.8147,-2.8126,-2.8134,-2.8131,-2.8077,-2.8033,-2.8058,-2.8025,-2.7971,-2.7996,-2.7959,-2.796,-2.8005,-2.8032,-2.804,-2.8047,-2.8149,-2.817,-2.8187,0,0,0,0,0,0,-2.823,-2.8173,-2.8136,-2.8181,-2.8164,-2.8116,-2.8146,-2.81,-2.8095,-2.8085,-2.8019,-2.8011,-2.8052,-2.8031,-2.7991,-2.8071,-2.8006,-2.8014,-2.8083,-2.8102,-2.8117,-2.8121,-2.7901,0,0,0,0,0,-2.826,-2.8271,-2.822,-2.8264,-2.8257,-2.8204,-2.8205,-2.8166,-2.8145,-2.8137,-2.8105,-2.8087,-2.8091,-2.8095,-2.8096,-2.8153,-2.8144,-2.8185,-2.82,-2.8213,-2.8221,-2.8252,-2.827,-2.8077,-2.8077,-2.8077,0,0,-2.832,-2.829,-2.83,-2.8285,-2.8267,-2.8281,-2.8198,-2.8215,-2.8226,-2.8139,-2.8167,-2.8144,-2.812,-2.8165,-2.8184,-2.8149,-2.8273,-2.8223,-2.8234,-2.8234,-2.8262,-2.828,-2.8297,-2.8082,-2.8081,-2.808,0,0,-2.8436,-2.8414,-2.845,-2.8434,-2.8407,-2.8372,-2.8381,-2.8341,-2.8322,-2.835,-2.8286,-2.8297,-2.8305,-2.8291,-2.8286,-2.8401,-2.8352,-2.8403,-2.8484,-2.8515,-2.853,-2.8543,-2.8586,-2.8602,-2.8411,-2.8412,-2.8412,0,-2.8514,-2.8532,-2.8474,-2.8496,-2.8493,-2.8416,-2.8453,-2.844,-2.8416,-2.8415,-2.8377,-2.8388,-2.8366,-2.8408,-2.8437,-2.8434,-2.8443,-2.8407,-2.8532,-2.8545,-2.8557,-2.8597,-2.8613,-2.8418,-2.8417,-2.8417,-2.8416,0,-2.863,-2.8644,-2.8676,-2.8655,-2.8655,-2.8685,-2.8632,-2.8639,-2.8601,-2.857,-2.86,-2.8572,-2.8567,-2.8574,-2.8535,-2.8612,-2.8591,-2.8544,-2.8477,-2.8583,-2.8619,-2.8634,-2.8427,-2.8425,-2.8423,-2.8421,0,0,-2.8811,-2.876,-2.8773,-2.8764,-2.8731,-2.8741,-2.8768,-2.8763,-2.8772,-2.8758,-2.878,-2.879,-2.8747,-2.8741,-2.8701,-2.8728,-2.8824,-2.8677,-2.8676,-2.8707,-2.8908,-2.8945,-2.8963,-2.8791,-2.8794,-2.8796,-2.8911,0,-2.8921,-2.8964,-2.8914,-2.8968,-2.8982,-2.8911,-2.8935,-2.8918,-2.8891,-2.8898,-2.8868,-2.8877,-2.8818,-2.8814,-2.8838,-2.8807,-2.8864,-2.8798,-2.8813,-2.8814,-2.8821,-2.8982,-2.902,-2.9129,-2.8925,-2.8927,-2.8929,0,-2.9054,-2.9049,-2.9105,-2.907,-2.9074,-2.9096,-2.909,-2.9098,-2.9078,-2.9056,-2.9051,-2.9004,-2.903,-2.8965,-2.9001,-2.8957,-2.8961,-2.8947,-2.895,-2.8949,-2.8878,-2.8987,-2.9162,-2.918,-2.895,-2.8949,-2.8947,0,-2.9183,-2.9189,-2.9224,-2.9218,-2.9179,-2.9197,-2.9181,-2.9158,-2.916,-2.9154,-2.9155,-2.9152,-2.9151,-2.9151,-2.9105,-2.9062,-2.9148,-2.9079,-2.9132,-2.9133,-2.9153,-2.9152,-2.9332,-2.9154,-2.9154,-2.9154,-2.9153,0,-2.9311,-2.9349,-2.9281,-2.9303,-2.9343,-2.9287,-2.9329,-2.9306,-2.9287,-2.9304,-2.9242,-2.926,-2.9197,-2.9209,-2.9173,-2.9209,-2.9209,-2.9193,-2.9184,-2.9199,-2.9201,-2.92,-2.9192,-2.9158,-2.9157,-2.9156,-2.9155,0,-2.9461,-2.9418,-2.9451,-2.9412,-2.9403,-2.9435,-2.9402,-2.9421,-2.9391,-2.9413,-2.9415,-2.9368,-2.9378,-2.9332,-2.9334,-2.9311,-2.9366,-2.9343,-2.9373,-2.9366,-2.9422,-2.9418,-2.9608,-2.9631,-2.9438,-2.944,-2.9442,0,-2.9546,-2.9573,-2.9538,-2.9545,-2.9533,-2.9545,-2.9547,-2.9493,-2.9497,-2.9479,-2.9501,-2.9506,-2.9508,-2.9528,-2.9494,-2.9496,-2.9473,-2.954,-2.9473,-2.9489,-2.9476,-2.9475,-2.9479,-2.9554,-2.9557,-2.9558,-2.956,0,-2.9702,-2.968,-2.9684,-2.9682,-2.9686,-2.9682,-2.9674,-2.9683,-2.9625,-2.9634,-2.9644,-2.9646,-2.9649,-2.9656,-2.9652,-2.9637,-2.959,-2.9582,-2.9594,-2.9611,-2.9627,-2.9621,-2.9412,-2.9577,-2.9576,-2.9574,-2.9573,-2.9573,-2.9822,-2.9844,-2.9823,-2.9831,-2.982,-2.9815,-2.9831,-2.9804,-2.9811,-2.981,-2.9778,-2.9795,-2.9778,-2.9767,-2.9757,-2.9771,-2.974,-2.9757,-2.9762,-2.9768,-2.9778,-2.9626,-2.977,-2.9769,-2.9769,-2.9768,-2.9768,0,-2.9976,-2.9959,-2.9968,-2.9959,-2.9966,-2.9922,-2.9911,-2.992,-2.9936,-2.9924,-2.9927,-2.994,-2.9948,-2.9916,-2.9919,-2.9936,-2.9915,-2.9939,-2.9937,-2.9935,-2.9805,-2.9794,-2.9956,-2.9956,-2.9956,-2.9956,-2.9956,-2.9956,-3.0056,-3.0092,-3.0068,-3.0098,-3.0082,-3.0098,-3.0096,-3.0092,-3.0082,-3.01,-3.0105,-3.0085,-3.0065,-3.0067,-3.0072,-3.0063,-3.0067,-3.0099,-3.0083,-2.9962,-2.9944,-2.9926,-2.9916,-3.01,-3.0101,-3.0211,-3.0212,-3.0213]},{"header":{"parameterUnit":"m.s-1","parameterCategory":1,"la1":30.2991,"la2":30.254,"lo1":-89.0895,"lo2":-89.0444,"dy":0.0017,"dx":0.0017,"nx":28,"ny":28,"refTime":"2025-08-08T03:00:00:Z","depth":0,"parameterNumber":3,"parameterNumberName":"V-component_of_WINDS"},"data":[0,0,0,0,0,0,0,0,0,0,0,0,0,0,0,0,0,0,0,0,0,0,0,0,0,0,0,0,0,0,0,0,0,0,0,0,0,0,0,0,0,0,0,0,0,0,0,0,0,0,0,0,0,0,0,0,0,0,2.576,2.576,0,2.5747,2.5747,2.5747,2.5784,2.5786,2.5787,2.5788,2.5767,2.5765,2.5764,0,0,0,0,0,0,0,0,0,0,0,0,0,2.5809,2.5808,2.576,2.576,2.5759,2.5747,2.5747,2.5747,2.5784,2.5786,2.5787,2.5788,2.5767,2.5766,2.5764,0,0,0,0,0,0,0,0,0,0,0,0,0,2.5791,2.5808,2.576,2.5777,2.5778,2.5747,2.5747,2.5747,2.5784,2.5786,2.5787,2.5789,2.5768,2.5766,2.5763,2.5713,0,0,2.5756,2.5755,0,0,0,0,0,0,0,0,2.5792,2.5789,2.5774,2.5776,2.5777,2.577,2.5757,2.5735,2.5784,2.5781,2.5788,2.579,2.5766,2.5764,2.5757,2.5712,2.5711,2.5756,2.5754,2.5753,2.5752,0,0,0,0,0,0,0,2.5793,2.579,2.5755,2.5774,2.5776,2.5783,2.5782,2.5753,2.5764,2.5782,2.5785,2.5783,2.5767,2.5759,2.5757,2.5711,2.5756,2.5753,2.5752,2.5751,2.5623,2.5621,0,0,0,0,0,0,2.5793,2.5791,2.5755,2.5754,2.5789,2.5781,2.578,2.577,2.5764,2.5765,2.5782,2.5785,2.5763,2.576,2.5756,2.5696,2.5753,2.5751,2.5749,2.5625,2.5622,2.562,0,0,0,0,0,0,2.5794,2.579,2.5756,2.5773,2.577,2.5778,2.5766,2.5769,2.5762,2.5764,2.5765,2.5772,2.5764,2.576,2.5724,2.5695,2.575,2.5747,2.5627,2.5624,2.5621,2.5575,0,0,0,0,0,0,2.5796,2.579,2.5772,2.5773,2.5769,2.5725,2.5765,2.5767,2.5758,2.5762,2.5756,2.5756,2.5765,2.5727,2.5721,2.5693,2.5745,2.5629,2.5626,2.5622,2.5579,2.5571,2.5564,0,0,0,0,0,2.5797,2.5758,2.5771,2.5767,2.5747,2.5723,2.5721,2.5734,2.5756,2.5737,2.5739,2.5757,2.5701,2.5723,2.5717,2.5687,2.5631,2.5627,2.5622,2.5582,2.5572,2.5564,0,0,0,0,0,0,2.575,2.5758,2.5773,2.5733,2.5728,2.573,2.5706,2.5723,2.5709,2.5713,2.5728,2.5726,2.5686,2.5684,2.5709,2.5638,2.5669,2.5663,2.5641,2.5631,2.5624,2.5623,2.5743,0,0,0,0,0,2.5737,2.5719,2.5726,2.569,2.5687,2.5697,2.5687,2.5699,2.5692,2.5689,2.5688,2.5679,2.566,2.5646,2.5628,2.558,2.5578,2.5557,2.5549,2.5543,2.5536,2.5509,2.5499,2.5606,2.5606,2.5606,0,0,2.5705,2.5707,2.5695,2.5681,2.5678,2.5657,2.5695,2.5671,2.5655,2.5684,2.5651,2.565,2.5641,2.5598,2.558,2.5595,2.5507,2.5537,2.5532,2.5529,2.5503,2.5493,2.5484,2.5603,2.5604,2.5604,0,0,2.5637,2.5639,2.5608,2.5606,2.5602,2.561,2.5602,2.5603,2.5604,2.5571,2.5593,2.5573,2.554,2.5532,2.5524,2.5456,2.547,2.545,2.5408,2.5382,2.5373,2.5366,2.5338,2.5329,2.5444,2.5444,2.5444,0,2.5598,2.557,2.559,2.5565,2.5558,2.5588,2.5556,2.5551,2.5541,2.5533,2.5552,2.5511,2.5507,2.5462,2.5446,2.5439,2.5429,2.5448,2.5373,2.5366,2.5359,2.5333,2.5324,2.5441,2.5441,2.5442,2.5442,0,2.5521,2.5501,2.5477,2.5469,2.5459,2.5431,2.5444,2.5432,2.5445,2.5449,2.5415,2.5412,2.5394,2.5385,2.5396,2.5341,2.5351,2.5371,2.5402,2.5346,2.5322,2.5312,2.5437,2.5438,2.5439,2.544,0,0,2.5419,2.5425,2.5416,2.5412,2.5412,2.5395,2.5368,2.5354,2.5341,2.5334,2.5309,2.5282,2.5301,2.5291,2.5302,2.5279,2.5223,2.5302,2.5302,2.5285,2.516,2.5142,2.513,2.5235,2.5233,2.5232,2.516,0,2.535,2.5306,2.5325,2.5277,2.5258,2.5288,2.5264,2.526,2.5264,2.5247,2.5252,2.5231,2.5259,2.5253,2.5233,2.5234,2.5197,2.524,2.5209,2.5207,2.5206,2.5118,2.5099,2.5031,2.5151,2.5149,2.5148,0,2.5263,2.5255,2.5207,2.521,2.5203,2.5181,2.5169,2.5153,2.5149,2.5154,2.5145,2.5161,2.5132,2.5167,2.5126,2.5155,2.5143,2.5142,2.514,2.5134,2.5171,2.5107,2.501,2.4998,2.5134,2.5135,2.5136,0,2.519,2.5167,2.5135,2.5132,2.5136,2.512,2.512,2.5118,2.5108,2.5097,2.509,2.5075,2.5066,2.5053,2.5064,2.5088,2.502,2.5056,2.502,2.502,2.5001,2.5001,2.4897,2.5,2.5,2.5,2.5,0,2.5109,2.5077,2.5103,2.5082,2.5048,2.5069,2.5033,2.5037,2.5035,2.5014,2.504,2.5019,2.5037,2.5017,2.5026,2.4989,2.4986,2.4986,2.4988,2.4982,2.4981,2.4971,2.4975,2.4998,2.4998,2.4999,2.4999,0,2.5019,2.5036,2.5002,2.501,2.5011,2.4985,2.499,2.4971,2.4979,2.4952,2.4947,2.4958,2.4937,2.4948,2.4925,2.4931,2.4883,2.4893,2.4885,2.4886,2.4848,2.485,2.4731,2.4715,2.4832,2.4831,2.483,0,2.4965,2.4941,2.4948,2.4937,2.4937,2.4919,2.491,2.4931,2.492,2.4914,2.4894,2.4876,2.4862,2.4826,2.483,2.4812,2.482,2.478,2.4817,2.4811,2.4815,2.4815,2.4811,2.477,2.4769,2.4768,2.4767,0,2.4864,2.4874,2.4862,2.4852,2.4841,2.4833,2.4828,2.4817,2.4838,2.4824,2.4804,2.4793,2.4772,2.4752,2.4737,2.4735,2.4752,2.4756,2.4746,2.4737,2.4732,2.4731,2.486,2.4757,2.4758,2.4759,2.476,2.476,2.4788,2.4769,2.477,2.4755,2.4754,2.4749,2.4731,2.4738,2.4723,2.4708,2.4722,2.4697,2.4693,2.4676,2.4671,2.4651,2.4666,2.4653,2.4648,2.4644,2.4637,2.474,2.4648,2.4649,2.4649,2.4649,2.4649,0,2.4686,2.469,2.4676,2.4669,2.4657,2.468,2.4676,2.4662,2.4642,2.4638,2.4625,2.4601,2.4583,2.4588,2.457,2.4553,2.456,2.4547,2.4546,2.4545,2.4626,2.4635,2.4541,2.4541,2.4541,2.4541,2.4541,2.4541,2.4632,2.4599,2.461,2.4577,2.458,2.4558,2.4553,2.4548,2.4545,2.4519,2.4505,2.451,2.4508,2.4492,2.4475,2.4477,2.4467,2.445,2.4454,2.4529,2.4539,2.4549,2.4557,2.4449,2.4449,2.4374,2.4373,2.4373]}]]